Location: Caltech
(34.1382°N, 118.1253°W)
Time: 15:21:52
(UTC-08:00)

SO-50 - Visible Passes

Search period start: 11 February 2016 00:00
Search period end: 21 February 2016 00:00
Orbit: 590 x 700 km, 64.6° (Epoch: 10 February)

Date Brightness Start Highest point End Pass type
(mag) Time Alt. Az. Time Alt. Az. Time Alt. Az.
11 Feb ? 04:48:33 34° NNW 04:48:33 34° NNW 04:51:47 10° NNE visible
12 Feb ? 03:36:26 13° NE 03:36:26 13° NE 03:36:58 10° NE visible
12 Feb ? 05:14:08 18° NNW 05:14:08 18° NNW 05:16:31 10° N visible
13 Feb ? 04:01:52 15° NNE 04:01:52 15° NNE 04:02:40 10° NNE visible
14 Feb ? 04:27:10 13° N 04:27:10 13° N 04:27:44 10° N visible
